Preview of NWS' New Version of Forecast
This preview is not operational and should not be used for support decisions.

Regional Weather Roundup (RWR)

Issued by Philadelphia/Mt Holly (PHI)

                            
000
ASUS41 KPHI 230912
RWRPHI

REGIONAL WEATHER ROUNDUP
NATIONAL WEATHER SERVICE MOUNT HOLLY NJ
500 AM EDT SAT MAR 23 2019

NOTE:  "FAIR" INDICATES FEW OR NO CLOUDS BELOW 12,000 FEET WITH NO
SIGNIFICANT WEATHER AND/OR OBSTRUCTIONS TO VISIBILITY.

 * = STATION DOES NOT REPORT PRECIPITATION (E.G. RAIN, SNOW, ETC.) 
        OR FOG.

NJZ015>026-231000-
SOUTHERN NEW JERSEY
  
CITY           SKY/WX    TMP DP  RH WIND       PRES   REMARKS
POMONA         CLOUDY    36  23  59 W22G35    29.75R WCI  25          
WILDWOOD*      FAIR      36  23  59 W21G32    29.82R WCI  25          
MILLVILLE      CLOUDY    35  21  56 W16G29    29.80R WCI  25          
MOUNT HOLLY    CLOUDY    37  21  52 W18G28    29.76R WCI  27          
TRENTON        FAIR      35  21  56 NW14G30   29.72R WCI  26          

$$
NJZ001>014-231000-
NORTHERN NEW JERSEY
  
CITY           SKY/WX    TMP DP  RH WIND       PRES   REMARKS
SUSSEX         CLOUDY    32  20  61 W9G18     29.68R WCI  24          
ANDOVER*         N/A     31  19  61 NW10G22   29.69R WCI  22          
MORRISTOWN     CLOUDY    34  21  60 NW10G24   29.68R WCI  26          
NEWARK         CLOUDY    35  20  54 W24G41    29.66R WCI  23          
TETERBORO      MOCLDY    35  20  54 NW23G33   29.64R WCI  23          
CALDWELL       CLOUDY    34  19  54 W16G30    29.67R WCI  24          
SOMERVILLE     CLOUDY    35  20  54 NW24G35   29.70R WCI  23          
ALLAIRE*       CLOUDY    35  22  58 W24G39    29.68R WCI  23          
TOMS RIVER*    CLOUDY    36  23  59 W16G29    29.71R WCI  26          

$$
PAZ043-044-047-054-055-060>062-066>071-231000-
EASTERN PENNSYLVANIA
  
CITY           SKY/WX    TMP DP  RH WIND       PRES   REMARKS
PHILADELPHIA   CLOUDY    37  20  50 W14       29.80R WCI  28          
NORTH PHILA    MOCLDY    37  21  52 W20G28    29.76R WCI  27          
BLUE BELL*     CLOUDY    34  23  64 W16G29    29.78R WCI  23          
DOYLESTOWN     FAIR      33  20  58 W20G31    29.73R WCI  21          
QUAKERTOWN*    PTCLDY    34  19  55 W13G26    29.75R WCI  25          
PERKASIE*      CLOUDY    32  19  59 NW12G25   29.75R WCI  23          
POTTSTOWN      FAIR      32  20  61 NW18G32   29.79R WCI  20          
LANCASTER      MOCLDY    34  22  61 W21G31    29.83R WCI  22          
COATESVILLE    FAIR      32  21  64 NW28G36   29.79R WCI  18          
READING        CLOUDY    34  22  61 W22G30    29.80R WCI  22          
ALLENTOWN      CLOUDY    36  19  50 NW16G26   29.76R WCI  26          
MOUNT POCONO   CLOUDY    24  19  81 W25G43    29.63R WCI   8          
HAZLETON       CLOUDY    28  19  69 W12G22    29.75R WCI  18          
LEHIGHTON      CLOUDY    32  21  64 W9G17     29.77R WCI  24          
WILKES BARRE   CLOUDY    30  21  69 NW12      29.75R WCI  20          

$$
DEZALL-MDZ008-012-015-019-020-231000-
DELAWARE AND EASTERN MARYLAND
  
CITY           SKY/WX    TMP DP  RH WIND       PRES   REMARKS
WILMINGTON     FAIR      35  21  56 NW24G32   29.82R WCI  23          
DOVER          FAIR      35  21  56 W21G28    29.83R WCI  24          
GEORGETOWN     FAIR      39  23  52 NW12G24   29.85R WCI  32          
EASTON         FAIR      37  24  58 NW20G32   29.93R WCI  27          
PATUXENT       FAIR      39  24  55 NW21G32   29.90R WCI  29          
OCEAN CITY     FAIR      37  24  59 NW14G25   29.85R WCI  28          
WALLOPS ISLAND FAIR      40  24  53 NW20G30   29.87R WCI  30          
CAMBRIDGE      CLEAR     39  23  52 NW16G32   29.89R WCI  30          
SALISBURY      FAIR      38  24  57 W17G28    29.87R WCI  28          

$$
PAZ001-021-NYZ056-072-MDZ011-DCZ001-231000-
OTHER NEARBY LOCATIONS
  
CITY           SKY/WX    TMP DP  RH WIND       PRES   REMARKS
HARRISBURG     FAIR      34  21  59 NW24G33   29.86R WCI  21          
STATE COLLEGE  CLOUDY    29  20  69 W13G24    29.91R WCI  19          
WILLIAMSPORT   CLOUDY    32  19  58 W14G26    29.84R WCI  22          
BINGHAMTON     MIX PCPN  22  18  85 NW20G31   29.71R WCI   7          
NEW YORK CITY  CLOUDY    35  20  54 W9G22     29.66R WCI  28          
BALTIMORE      FAIR      35  22  58 NW12G25   29.89R WCI  27          
WASHINGTON DC  FAIR      39  22  50 NW16G32   29.93R WCI  30          

$$